Millbury, Ohio, United States (43447)
Lat: 41.57N, Lon: 83.42W
Wx Zone: OHZ006
Local Info
Past Weather Observations for Today

NOTE: This archive is for the closest National Weather Service station to Millbury. Information may differ from the station used for current weather conditions.

Click here for Long-term Archive

Time Weather Temperature Dewpoint Humidity Pressure Winds Precip Visibility
17:53
Overcast
48°F / 9°C 39°F / 4°C 71% 30.12 in
(1020 mb)
ENE 6.9 mph
(ENE 11 kph)
- 8SM
16:53
Overcast
48°F / 9°C 39°F / 4°C 71% 30.12 in
(1020 mb)
ENE 8.1 mph
(ENE 13 kph)
- 7SM
15:53
Overcast
50°F / 10°C 37°F / 3°C 62% 30.09 in
(1019 mb)
ENE 9.2 mph
(ENE 15 kph)
- 10SM
14:53
Partly Cloudy
52°F / 11°C 39°F / 4°C 62% 30.09 in
(1019 mb)
ENE 15 mph
(ENE 24 kph)
- 10SM
14:29
Mostly Cloudy
52°F / 11°C 39°F / 4°C 62% 30.09 in
(1019 mb)
ENE 8.1 mph
(ENE 13 kph)
- 8SM
14:07
Mostly Cloudy
50°F / 10°C 39°F / 4°C 67% 30.09 in
(1019 mb)
ENE 9.2 mph
(ENE 15 kph)
- 9SM
13:53
Partly Cloudy
54°F / 12°C 39°F / 4°C 58% 30.09 in
(1019 mb)
ENE 10.4 mph
(ENE 17 kph)
- 9SM
13:37
Mostly Cloudy
52°F / 11°C 39°F / 4°C 62% 30.09 in
(1019 mb)
NE 9.2 mph
(NE 15 kph)
- 8SM
13:20
Mostly Cloudy
52°F / 11°C 39°F / 4°C 62% 30.09 in
(1019 mb)
NE 9.2 mph
(NE 15 kph)
- 9SM
12:53
Mostly Cloudy
54°F / 12°C 39°F / 4°C 58% 30.06 in
(1018 mb)
NNE 9.2 mph
(NNE 15 kph)
- 10SM
12:38
Mostly Cloudy
52°F / 11°C 37°F / 3°C 58% 30.06 in
(1018 mb)
NE 5.8 mph
(NE 9 kph)
- 10SM
11:53
Overcast
52°F / 11°C 37°F / 3°C 58% 30.06 in
(1018 mb)
NE 6.9 mph
(NE 11 kph)
- 10SM
11:37
Overcast
50°F / 10°C 37°F / 3°C 62% 30.09 in
(1019 mb)
Variable 5.8 mph
(Variable 9 kph)
- 10SM
10:53
Overcast
48°F / 9°C 37°F / 3°C 66% 30.09 in
(1019 mb)
ENE 6.9 mph
(ENE 11 kph)
- 10SM
09:53
Overcast
48°F / 9°C 37°F / 3°C 66% 30.04 in
(1017 mb)
ENE 8.1 mph
(ENE 13 kph)
- 10SM
08:53
Overcast
48°F / 9°C 36°F / 2°C 62% 30.06 in
(1018 mb)
NNE 5.8 mph
(NNE 9 kph)
- 10SM
07:53
Overcast
46°F / 8°C 36°F / 2°C 66% 30.06 in
(1018 mb)
NE 4.6 mph
(NE 7 kph)
- 10SM
06:53
Overcast
46°F / 8°C 36°F / 2°C 66% 30.04 in
(1017 mb)
NE 6.9 mph
(NE 11 kph)
- 10SM
05:53
Overcast
46°F / 8°C 36°F / 2°C 66% 30.04 in
(1017 mb)
NE 4.6 mph
(NE 7 kph)
- 10SM
04:53
Overcast
46°F / 8°C 36°F / 2°C 66% 30.01 in
(1016 mb)
NE 6.9 mph
(NE 11 kph)
- 10SM
03:53
Overcast
46°F / 8°C 36°F / 2°C 66% 30.01 in
(1016 mb)
NE 4.6 mph
(NE 7 kph)
- 10SM
02:53
Overcast
46°F / 8°C 36°F / 2°C 66% 30.01 in
(1016 mb)
NE 6.9 mph
(NE 11 kph)
- 10SM
01:53
Overcast
46°F / 8°C 36°F / 2°C 66% 30.01 in
(1016 mb)
ENE 5.8 mph
(ENE 9 kph)
- 10SM
00:53
Overcast
46°F / 8°C 37°F / 3°C 71% 30.01 in
(1016 mb)
ENE 8.1 mph
(ENE 13 kph)
0.00 in
(0.00 mm)
10SM
Time Weather Temperature Dewpoint Humidity Pressure Winds Precip Visibility


Weather for websites

WeatherForYou.com, LLC is not responsible for any damages or problems caused by this service. Current weather conditions are obtained from the closest station including government and personal stations which may have varying degrees of accuracy. Weather forecasts are derived from the NOAA NDFD. Like all things, this site belongs to Jesus Christ... He just trusts us to maintain it. If you have any questions or comments email webmaster@weatherforyou.com

Copyright © 2016, WeatherForYou.com LLC. All rights reserved.